User: anonymous   Login
Location: Laverne
(36.7100°N, 99.8930°W)
Time: 06:49:39
(UTC-05:00)
Language:

Iridium 32 - Orbit

View from above orbital plane
View from above orbital plane
View from above satellite
View from above satellite

Ground track
Ground track

The orbit data is extracted from the following two-line orbital elements,

1 24945U 97051B   15212.48904371  .00000021  00000-0  37135-6 0  9991
2 24945 086.3952 214.1237 0002398 091.1090 269.0380 14.34217034935993
Epoch (UTC): 31 July 2015 11:44:13
Eccentricity: 0.0002398
inclination: 86.3952°
perigee height: 776 km
apogee height: 779 km
right ascension of ascending node: 214.1237°
argument of perigee: 91.1090°
revolutions per day: 14.34217034
mean anomaly at epoch: 269.0380°
orbit number at epoch: 93599

The dashed part of the orbit path shows where the satellite is in the earth's shadow,  

DLR